Wind_Speed
8 6 7 8 10 12 13 14 15 18 16 10 10 7 8 8 10 9 8 13 6 3 4 6 8 10 10 11 11 8 9 11 8 6 13 12 11 10 10 7 7 4 2 2 6 5 5 6 6 7 9 15 19 19 21 21 21 23 21 19 16 14 14 14 14 15 17 17 15 15 14 12 9 9 10 11 11 12 11 15 18 18 18 18 15 13
9 8 9 12 13 14 14 15 15 18 16 11 10 8 7 6 6 8 5 11 11 5 4 8 10 11 10 11 12 12 10 11 10 8 10 14 14 12 12 11 10 6 4 2 5 5 8 8 6 6 4 4 16 19 19 20 22 23 22 22 18 16 15 14 14 15 15 14 13 12 12 10 7 8 12 13 13 13 12 13 16 18 18 18 15 13
9 9 12 14 14 14 14 14 14 16 14 8 8 8 6 5 5 8 9 6 9 5 4 8 9 10 11 12 12 13 14 8 9 10 10 11 13 13 15 15 13 11 8 5 4 2 2 9 13 11 1 7 3 15 18 18 21 21 21 22 20 19 18 18 17 16 14 13 12 10 8 6 6 7 12 14 14 14 13 12 13 15 18 17 15 15
7 9 15 16 14 14 14 14 12 12 10 6 7 8 6 8 7 7 5 5 3 2 2 5 9 9 10 11 12 13 14 13 10 12 12 11 11 13 15 15 13 13 10 8 7 3 3 5 11 16 12 2 5 6 13 17 20 20 22 24 24 23 21 20 19 16 15 14 12 10 8 7 7 6 10 13 12 12 13 13 13 14 16 15 14 16
10 13 17 17 15 15 15 13 10 7 6 7 9 10 8 10 11 10 7 3 2 3 1 5 9 7 10 11 10 10 10 14 16 12 12 11 12 12 14 16 14 13 11 9 9 8 7 6 7 13 17 11 3 6 10 16 18 19 23 26 27 25 22 21 20 18 18 17 15 14 13 13 11 9 11 13 12 11 14 15 14 15 15 14 15 17
12 14 15 16 16 17 15 11 10 8 6 8 11 13 13 13 13 13 13 8 5 3 5 8 8 6 9 13 12 11 10 13 15 12 10 11 12 12 12 15 15 14 13 11 11 9 8 8 9 11 15 17 15 14 13 13 13 15 19 21 22 23 21 20 20 18 19 19 18 17 17 17 16 12 12 11 12 13 14 15 15 16 16 16 17 17
9 14 12 10 11 13 12 9 10 11 8 7 9 12 15 15 15 15 15 11 5 4 6 8 8 5 7 11 12 13 14 15 14 12 11 10 10 11 8 11 12 14 14 13 13 12 10 9 10 11 14 19 24 22 16 12 11 14 16 17 19 19 16 16 17 17 17 17 18 16 15 16 17 15 12 10 10 12 14 14 15 15 16 16 16 16
9 15 13 10 9 7 8 8 10 12 9 7 9 12 15 17 17 15 12 9 6 6 9 10 10 8 6 7 9 11 13 14 14 14 14 10 10 10 7 12 13 13 14 14 14 14 13 13 13 14 15 21 26 22 15 14 17 18 19 21 20 16 14 14 16 17 16 17 17 15 14 15 16 15 13 11 11 13 13 14 15 14 14 13 12 13
10 14 13 12 11 8 8 10 11 13 10 9 12 11 11 12 10 9 7 8 8 7 9 10 11 9 6 6 9 12 12 10 11 12 9 9 10 11 8 14 13 11 11 13 12 12 14 15 15 17 16 20 21 16 11 15 22 21 21 23 19 14 15 15 16 16 15 16 17 16 16 16 16 15 14 13 13 14 14 15 16 14 14 13 11 12
9 12 12 10 9 9 10 11 13 14 10 10 13 8 5 9 8 6 7 7 8 8 9 10 11 9 6 6 7 7 7 6 9 10 7 7 9 5 6 12 9 8 8 8 10 9 12 15 16 17 16 17 18 16 12 14 22 23 20 21 19 15 16 17 16 16 15 15 15 16 18 18 16 16 16 15 14 15 15 16 15 14 15 14 14 15
8 10 10 9 10 10 11 12 13 13 10 10 11 7 6 7 6 7 7 7 7 8 10 12 13 10 7 6 4 1 3 5 5 3 4 2 2 6 7 11 8 8 6 5 6 8 11 15 18 18 17 17 16 15 14 16 21 24 20 18 17 15 17 20 19 17 16 17 16 16 17 18 18 18 19 18 17 16 16 15 14 14 15 15 15 15
12 10 8 8 10 9 10 11 11 10 9 8 8 5 5 5 6 7 7 7 7 8 10 12 14 13 10 5 0 4 7 6 5 3 5 7 7 8 4 8 9 8 8 5 4 6 9 13 17 18 16 16 14 14 18 23 23 23 22 19 16 16 20 23 23 21 20 20 18 17 18 18 18 19 20 20 20 20 18 16 16 16 16 17 16 15
12 11 10 9 8 9 10 9 8 8 8 8 7 6 6 5 6 7 6 7 7 8 10 12 13 10 5 2 7 7 6 6 5 5 3 3 4 2 2 5 6 3 4 5 4 5 7 8 12 15 15 15 16 19 26 29 25 22 23 21 18 20 22 25 26 24 23 21 19 19 19 19 19 19 20 20 20 21 20 19 20 19 19 18 17 16
9 10 14 13 9 11 13 9 7 8 9 10 8 7 7 6 5 6 6 6 7 8 9 12 12 7 2 6 7 5 4 5 5 5 4 3 1 4 4 6 6 6 5 4 5 7 8 9 11 16 18 18 20 26 30 29 24 21 21 21 20 22 23 24 25 25 23 21 19 20 18 19 21 19 20 21 19 20 20 20 20 21 21 19 18 17
9 9 12 13 8 11 15 13 10 9 9 10 8 8 8 6 7 6 5 6 7 6 6 8 9 4 2 2 3 4 5 6 5 5 5 5 2 2 2 6 6 5 2 2 3 6 7 8 11 15 20 22 25 30 31 28 25 21 21 22 21 22 23 23 24 24 22 19 19 20 17 19 23 20 19 20 19 20 19 18 19 19 19 19 17 17
11 8 9 12 9 12 15 14 14 11 8 8 9 9 8 8 7 5 5 5 4 4 4 4 2 4 3 6 4 4 5 6 5 5 5 4 4 3 2 3 5 3 3 4 4 6 7 7 10 14 19 22 25 27 28 26 24 21 21 22 22 21 22 23 24 23 20 18 18 17 16 20 23 20 19 20 19 19 17 17 17 16 16 16 15 16
9 7 8 12 13 14 14 13 14 12 7 6 8 9 8 10 9 5 6 5 3 4 4 4 2 5 5 6 5 4 5 6 5 6 6 5 5 4 4 4 2 2 2 5 5 6 7 7 8 10 13 16 19 23 26 24 23 22 20 21 20 17 17 18 20 20 18 17 17 14 16 21 21 19 19 19 17 15 16 17 16 16 16 15 15 16
6 6 8 13 14 14 13 13 15 15 11 6 6 8 8 10 10 6 5 5 6 6 5 6 6 4 4 3 5 4 3 5 5 6 6 6 8 6 6 8 8 6 6 7 7 8 8 10 12 13 12 9 8 12 14 12 12 14 12 12 11 9 10 9 11 15 16 16 15 13 16 19 19 20 19 15 13 15 17 17 17 17 17 15 15 15
5 5 8 13 13 12 12 12 12 13 15 11 7 6 6 7 7 5 4 5 6 6 4 7 8 1 2 0 3 3 2 4 6 7 7 7 9 8 6 8 10 10 8 6 6 7 8 10 13 17 21 20 14 7 2 2 1 4 6 7 8 8 6 6 6 10 11 14 14 12 14 17 18 18 15 13 15 17 18 16 16 17 16 15 15 14
4 4 6 10 11 10 10 10 9 9 13 13 10 8 6 5 5 5 5 5 6 6 5 7 6 2 3 3 2 2 3 6 7 5 4 6 9 9 7 7 9 9 9 8 7 7 8 9 12 15 18 20 19 14 8 7 8 11 14 8 10 11 9 11 12 10 7 9 11 8 11 16 17 14 13 15 17 17 17 17 17 17 16 15 15 15
6 3 4 7 9 10 8 8 8 9 9 10 10 9 7 5 5 5 3 4 6 5 4 6 3 3 2 3 2 3 3 6 7 5 2 6 10 10 9 8 8 8 8 9 8 8 8 10 13 15 15 19 22 18 14 13 10 8 8 5 9 12 13 11 12 12 8 8 10 7 8 13 14 13 14 17 17 16 18 18 18 18 17 16 16 16
5 5 5 7 7 8 8 10 12 13 11 10 9 9 9 8 7 6 4 4 5 5 4 3 0 1 2 4 3 4 5 5 5 5 5 7 10 9 9 9 7 6 6 7 8 8 9 10 13 13 14 18 20 17 16 15 11 7 6 6 8 11 14 12 8 10 10 11 14 14 10 9 10 12 13 16 17 17 18 19 18 18 16 16 16 15
4 3 5 7 7 8 10 11 13 15 15 12 10 10 10 8 7 7 5 3 4 6 5 1 3 2 2 2 5 6 8 7 4 5 6 8 9 9 9 8 7 5 5 5 7 9 10 12 14 14 12 14 16 15 15 13 11 10 8 7 10 12 13 12 10 11 12 15 19 21 16 12 14 15 14 16 17 17 17 18 17 16 15 15 16 14
4 3 5 6 6 9 11 8 7 12 14 12 10 10 10 10 10 9 4 3 3 2 2 1 1 2 2 4 5 5 9 9 6 6 7 8 8 8 8 8 6 6 7 9 9 10 11 13 15 14 12 11 13 15 14 12 11 11 11 10 12 12 10 9 11 15 17 20 24 25 20 18 19 18 16 16 17 16 16 16 16 16 15 15 15 14
3 4 5 6 6 7 9 6 6 10 11 8 7 8 11 14 12 6 1 4 3 3 4 1 1 2 4 4 4 5 8 8 6 6 8 8 8 7 7 6 6 7 9 11 12 12 13 13 13 14 13 12 13 13 12 12 12 12 13 13 12 11 9 8 10 16 20 23 27 27 25 23 22 20 17 16 16 17 16 15 15 15 15 15 16 14
4 4 5 7 7 6 6 5 4 4 3 4 6 8 12 16 9 2 2 2 2 3 5 3 1 4 6 5 4 5 7 7 6 7 7 8 8 7 6 5 7 8 10 13 13 13 13 11 10 13 15 15 15 14 13 13 14 13 14 14 12 10 8 6 8 14 20 24 27 27 26 26 25 21 17 15 17 18 17 15 15 14 14 15 16 15
2 4 3 4 4 2 3 4 7 7 3 4 9 8 9 12 7 3 2 2 1 1 2 0 6 8 6 6 7 6 7 7 6 7 6 7 7 6 6 7 8 8 9 12 13 13 12 11 12 14 16 16 16 17 16 16 16 15 15 14 11 9 8 5 7 13 19 23 24 23 25 27 24 19 17 17 18 18 16 15 14 13 13 13 14 14
0 2 3 4 4 3 3 4 8 10 6 4 9 11 12 13 9 2 2 3 3 3 2 1 6 10 9 9 9 9 8 7 7 7 6 6 6 6 7 8 9 9 10 12 12 13 13 13 13 14 16 16 17 18 18 18 18 17 17 17 14 10 7 4 8 14 18 20 20 20 23 24 20 17 17 19 18 17 16 15 14 13 13 13 13 12
0 1 4 5 5 4 4 5 8 8 5 4 7 9 12 15 13 7 7 9 6 4 2 4 5 9 8 7 10 11 9 8 8 7 6 7 7 7 8 9 10 10 11 13 13 13 14 13 12 14 16 16 17 17 17 16 16 16 18 18 17 14 8 4 7 12 17 18 18 18 20 20 19 19 19 19 17 16 15 14 13 14 13 12 13 12
1 1 3 4 4 5 4 5 9 10 5 3 7 10 11 12 11 8 8 9 8 6 3 4 7 9 7 8 10 11 10 9 8 8 8 9 9 8 9 10 11 11 12 13 13 13 13 13 13 14 15 15 16 15 15 15 15 16 18 19 19 17 12 7 3 6 13 17 17 17 17 16 17 17 18 18 16 15 15 14 12 13 14 13 13 11
2 2 1 1 3 4 3 2 7 10 4 3 7 10 11 10 9 6 7 8 7 5 5 8 9 6 5 7 9 10 10 9 9 9 9 9 9 9 10 11 11 12 12 12 12 13 13 13 14 15 15 15 16 16 15 15 15 17 19 20 21 19 16 13 11 10 14 17 16 16 15 15 15 16 16 16 16 16 16 14 12 13 15 15 13 11
3 3 3 4 4 4 2 2 3 7 5 2 6 10 9 7 5 5 6 7 4 5 8 9 6 3 4 7 9 10 11 10 10 10 8 9 10 10 11 11 11 12 12 12 12 12 12 12 13 15 16 16 17 17 16 16 16 17 19 20 21 20 19 19 18 17 16 15 14 15 15 14 15 15 14 14 16 18 18 17 17 18 18 17 14 12
2 3 3 3 4 3 0 2 1 2 4 3 4 8 8 6 4 4 8 10 6 3 5 3 4 6 8 8 9 10 11 11 10 8 8 8 9 11 11 11 11 11 11 12 12 12 11 12 13 15 15 15 15 15 15 16 16 15 17 19 21 21 23 24 23 22 19 14 13 13 15 15 15 16 14 12 15 18 19 19 19 19 18 17 15 14
1 2 2 1 2 2 3 4 0 2 2 2 1 4 7 7 8 9 9 11 9 7 6 5 8 9 9 8 9 10 10 11 10 10 10 8 7 8 10 11 10 10 11 11 11 11 11 12 14 15 15 15 15 14 15 16 16 15 16 19 21 23 24 25 25 26 24 19 15 12 13 15 15 15 13 11 12 16 17 19 19 18 17 15 13 13
2 2 1 1 1 0 4 3 1 2 1 1 1 4 7 6 8 12 11 12 9 10 12 11 11 10 10 10 11 11 12 12 12 12 12 11 9 8 9 10 10 10 10 10 10 10 12 13 14 15 16 16 15 16 17 16 16 18 21 21 22 23 23 24 26 27 26 25 22 17 13 12 13 13 12 12 12 13 14 17 18 17 16 15 12 11
4 3 2 2 2 1 2 2 1 1 1 2 5 7 8 5 5 9 9 9 10 8 12 11 10 10 11 11 10 10 11 12 12 12 12 12 11 10 9 9 9 10 10 10 11 11 13 14 14 15 16 17 17 17 18 17 15 16 19 20 21 22 23 25 25 24 25 26 26 24 19 14 13 14 14 14 13 11 11 13 15 15 14 13 11 9
5 4 3 4 3 3 2 2 3 4 3 4 5 6 5 4 4 4 3 6 8 7 8 9 10 11 10 10 10 9 9 10 10 10 11 11 11 11 11 10 10 11 12 13 14 14 15 16 17 17 18 19 20 19 19 19 17 17 17 18 19 20 22 24 23 22 23 26 26 25 23 20 19 17 15 15 15 13 12 12 12 12 11 9 7 8
4 4 4 4 3 1 1 2 3 4 3 4 6 6 5 2 2 4 0 3 5 5 6 7 9 10 9 9 9 8 5 7 7 6 8 10 10 11 12 12 12 13 14 16 17 18 18 18 20 22 21 20 21 21 20 19 19 19 20 20 19 18 20 22 21 20 22 23 24 24 23 22 22 21 18 17 16 15 13 11 11 10 8 6 7 9
3 3 3 3 3 1 0 1 1 2 3 4 7 8 7 3 2 4 1 2 4 5 5 7 8 8 7 7 6 4 1 4 5 4 7 9 10 10 10 10 11 13 15 16 17 18 19 19 20 24 25 23 21 21 20 19 20 21 22 22 21 21 21 21 20 20 20 20 21 22 23 22 21 20 20 20 18 16 14 11 9 8 7 6 8 12
1 3 3 3 3 3 2 1 2 3 3 6 9 9 8 6 4 4 2 2 3 4 6 7 7 7 6 5 5 4 3 5 6 4 6 8 10 11 10 10 13 15 15 16 16 16 17 20 22 23 23 22 21 20 19 18 19 21 21 21 21 22 21 20 19 19 19 19 19 20 21 22 21 20 20 20 19 18 16 15 12 10 9 9 10 12
1 2 4 4 4 4 4 3 3 2 2 8 11 10 8 6 3 1 1 2 3 6 8 7 7 8 8 6 6 6 5 7 8 7 7 9 10 11 12 12 13 14 16 18 18 16 16 18 19 19 19 20 20 20 19 18 19 19 19 19 20 20 19 19 19 18 18 18 19 19 20 20 20 19 18 18 19 18 18 18 17 16 16 15 14 14
0 0 2 2 3 4 4 4 3 3 4 10 13 9 7 4 1 2 3 3 6 9 9 9 9 9 10 9 9 8 7 9 9 9 9 9 9 10 12 13 13 14 15 17 18 17 16 16 17 17 17 18 19 19 18 18 18 18 18 18 19 17 16 17 18 19 19 19 18 19 19 20 21 20 19 17 17 18 18 18 17 16 16 15 15 14
3 2 1 2 2 2 4 4 2 3 5 12 12 6 5 4 1 2 2 5 9 9 9 9 9 9 11 11 10 10 10 10 10 10 10 10 9 10 12 13 14 15 16 17 18 17 15 15 15 15 15 15 17 17 18 19 19 17 17 18 17 16 15 15 16 18 19 20 19 17 17 18 20 20 19 18 17 17 17 16 15 14 14 13 13 13
7 4 2 3 4 2 3 4 2 2 5 10 8 4 4 5 3 3 1 7 9 8 8 9 9 10 11 12 12 11 11 11 10 9 9 10 10 11 12 14 15 15 15 17 19 18 17 15 15 15 14 15 15 15 16 17 16 15 15 15 15 15 15 14 14 15 16 18 18 18 17 17 18 18 18 18 17 17 17 16 16 16 15 13 12 11
6 6 6 6 5 5 5 4 4 5 5 6 7 6 5 6 6 4 6 9 8 7 8 8 10 11 11 12 13 11 10 9 9 8 8 8 8 8 10 12 13 14 14 15 15 15 15 14 14 14 14 15 15 14 14 14 13 13 13 12 13 14 15 14 14 15 15 14 15 16 16 16 17 18 19 18 18 18 17 16 17 18 18 17 16 15
7 7 7 7 7 8 9 7 7 7 7 8 7 6 6 8 8 8 10 10 8 9 9 9 11 12 11 11 11 10 9 9 9 8 8 7 7 7 9 11 11 12 13 14 15 14 14 13 13 13 14 15 15 14 14 12 12 11 10 10 12 13 13 13 15 15 14 14 14 14 14 15 16 17 17 18 18 18 16 14 14 16 17 18 17 17
7 8 7 6 5 4 5 7 8 8 9 8 7 7 8 10 9 8 10 10 10 11 11 11 12 12 11 10 11 10 10 10 9 8 7 7 8 8 8 8 8 8 9 11 13 14 13 12 12 12 13 14 14 13 13 12 11 11 10 9 10 11 11 11 12 13 13 13 13 14 15 15 14 14 15 16 18 19 17 15 14 15 17 18 17 17
6 8 9 9 7 6 6 8 10 11 11 9 7 6 7 9 9 9 9 11 12 13 13 14 13 11 11 10 10 11 10 9 9 8 7 7 7 7 7 6 6 7 8 10 10 11 11 10 10 11 11 12 12 12 12 11 11 10 10 9 9 8 9 10 10 11 12 11 12 13 14 15 15 16 17 17 18 19 18 16 16 17 18 17 16 16
7 7 7 8 8 8 8 9 10 11 11 10 8 7 6 7 10 11 11 12 12 12 11 12 12 11 11 11 11 11 10 9 10 9 8 7 7 7 8 7 7 6 5 6 7 8 8 9 9 10 10 10 10 11 11 11 11 10 9 8 7 7 8 8 9 10 10 10 11 11 11 12 14 17 19 20 20 20 19 17 17 18 20 19 17 16
8 8 7 7 7 7 7 7 7 8 8 8 8 9 8 9 11 12 12 12 12 11 10 11 12 13 12 11 9 8 7 7 8 8 7 7 8 8 8 7 7 6 5 6 6 6 7 7 8 9 10 10 10 10 10 10 10 10 9 9 8 7 7 8 9 10 10 11 10 10 10 10 11 13 14 17 19 21 22 21 20 21 21 21 20 19
7 7 7 7 9 10 11 11 9 8 9 9 10 10 10 10 11 12 11 11 11 11 11 11 11 11 12 13 13 12 10 9 10 10 10 10 11 12 10 9 9 8 7 8 7 6 7 7 7 8 9 9 10 9 9 9 9 9 9 9 9 10 10 9 10 10 11 11 11 10 11 11 11 10 10 10 13 16 19 20 20 19 19 18 18 19
Wind_Direction
199 207 211 216 221 219 218 226 237 242 247 288 315 275 237 233 235 231 156 132 153 206 232 253 262 260 263 261 248 230 189 179 218 185 142 151 154 145 139 168 226 197 115 96 109 89 74 104 127 122 135 146 148 149 145 146 149 148 151 158 163 170 176 178 179 182 183 183 184 187 194 196 182 158 147 154 172 182 180 180 184 185 182 179 180 176
201 218 220 218 224 226 223 223 238 254 263 290 301 279 262 251 258 272 218 155 148 145 254 267 269 262 259 264 267 269 242 188 182 192 170 167 169 158 151 176 203 167 125 80 79 60 64 86 99 62 18 162 150 147 148 149 149 147 149 154 160 168 176 182 185 188 190 190 193 198 201 192 165 156 161 161 167 176 180 177 178 180 178 178 177 174
204 223 227 225 226 231 235 229 229 249 260 276 274 263 272 267 265 278 263 180 142 145 229 254 264 262 256 254 253 261 263 236 181 196 219 199 180 170 166 176 182 165 154 140 111 46 88 133 140 129 111 289 175 140 145 150 149 147 149 155 163 168 172 182 188 190 195 200 204 206 198 162 133 169 178 167 166 173 174 167 163 168 173 178 182 181
203 217 225 227 231 231 236 237 233 246 246 244 257 248 248 260 264 263 231 156 153 269 260 271 275 266 262 255 244 242 251 264 239 201 215 227 210 190 167 162 172 167 160 151 141 170 218 161 142 140 145 285 332 126 145 152 153 154 158 164 169 171 173 179 183 185 189 192 190 181 168 136 121 161 169 155 162 171 165 160 160 165 172 179 185 185
221 220 215 212 222 230 230 227 227 251 249 222 238 248 248 249 253 260 253 205 233 308 324 273 277 266 261 259 255 246 229 252 259 224 208 225 234 217 169 158 176 171 153 154 156 170 199 186 151 145 142 135 164 212 186 168 164 164 169 173 174 173 175 177 178 182 185 182 175 161 147 138 135 158 164 148 154 167 160 158 160 166 176 184 189 189
230 238 223 204 209 219 225 220 207 223 250 232 224 234 251 262 266 271 278 267 224 215 206 218 244 253 247 245 245 248 232 239 252 239 223 227 238 234 187 166 171 160 150 161 171 175 190 181 153 145 145 147 174 215 218 188 174 173 176 178 176 174 177 179 179 184 187 183 177 168 155 146 145 164 176 155 153 166 163 162 163 166 175 184 190 192
227 250 245 221 221 209 211 222 208 213 234 246 229 220 232 252 266 269 279 284 262 269 261 233 250 265 244 242 238 235 232 233 238 229 220 229 245 246 204 162 155 153 154 163 175 178 180 177 152 142 155 165 180 200 211 195 179 180 187 191 187 179 176 179 181 188 190 184 178 169 159 152 150 164 174 157 157 169 167 165 165 164 170 179 190 194
209 240 233 214 235 208 201 228 213 214 226 238 243 235 227 227 234 243 260 279 275 281 281 264 265 272 262 262 267 261 240 227 233 224 203 205 246 253 196 158 160 163 157 157 170 174 170 174 161 149 167 182 185 190 196 186 182 189 195 198 195 183 173 176 184 192 191 183 175 163 156 155 154 164 167 159 165 166 165 168 165 165 173 179 191 194
193 236 225 196 225 224 212 232 219 216 226 236 243 249 260 258 251 248 251 260 260 260 264 258 253 257 260 255 268 279 265 240 246 244 209 188 234 254 186 161 167 159 150 155 162 164 161 167 162 148 166 192 191 189 198 193 187 192 200 199 190 172 163 172 185 192 185 178 174 164 160 158 154 158 158 158 165 162 162 168 167 171 175 172 183 192
191 226 228 196 218 234 223 229 226 219 217 236 245 243 266 278 288 282 262 255 255 252 249 249 250 257 261 244 249 272 277 270 259 260 258 207 219 263 138 153 159 131 142 165 157 154 154 156 153 144 161 190 191 187 207 216 195 190 202 201 183 162 158 168 184 191 183 178 173 164 162 159 152 151 151 153 157 159 165 170 170 172 168 169 185 191
219 206 221 215 213 225 232 229 228 226 217 227 245 244 228 233 251 260 258 261 260 254 251 248 249 256 262 254 249 231 50 351 293 263 342 22 43 13 77 134 145 131 159 191 149 146 152 148 146 147 165 185 187 183 203 227 206 192 201 199 181 168 164 169 178 186 186 182 178 171 165 162 156 153 154 154 155 161 170 172 168 160 164 182 194 183
242 214 207 224 221 225 239 232 223 224 216 217 234 246 236 219 225 233 234 238 243 251 255 251 244 242 253 262 110 83 78 48 8 46 50 48 46 7 27 140 156 160 172 178 131 145 155 148 146 151 170 180 174 179 204 220 210 193 196 194 181 173 169 170 176 182 184 182 178 174 167 163 159 157 157 157 161 167 169 167 165 163 174 187 183 168
236 233 211 210 218 230 242 230 216 213 206 214 220 216 233 235 224 226 225 222 233 246 250 256 254 242 250 37 77 69 57 59 40 42 58 75 81 330 294 149 145 120 124 136 148 173 173 164 156 156 170 178 172 184 207 216 205 190 191 190 182 176 171 170 174 178 180 179 174 168 167 165 161 160 162 161 164 167 166 166 168 171 175 173 165 161
216 231 222 211 193 207 230 228 211 209 201 208 214 207 219 232 231 227 224 229 243 249 246 252 256 239 129 64 79 89 59 52 45 40 49 62 114 236 196 140 111 75 79 129 167 184 182 183 176 166 172 182 184 192 206 212 200 187 187 186 179 174 172 172 173 175 177 177 172 164 164 169 167 165 165 164 165 166 165 166 169 167 165 163 162 164
214 221 224 223 188 182 214 230 229 224 206 200 214 226 223 224 242 240 227 237 248 262 278 266 260 255 161 137 72 76 68 49 40 44 49 53 29 276 154 120 108 103 149 209 211 212 204 196 186 176 178 185 190 193 198 200 193 185 185 187 182 174 172 171 171 175 178 173 167 164 163 171 173 169 166 166 165 164 163 164 166 163 160 161 163 161
225 223 217 223 211 190 203 222 235 238 222 199 206 228 232 228 240 251 252 266 278 287 295 265 266 42 122 172 139 88 81 64 43 45 48 49 47 28 49 101 122 139 213 232 230 234 238 231 210 193 187 189 192 193 190 189 189 187 188 190 187 178 172 172 172 174 174 167 161 161 162 170 175 173 169 166 162 162 165 162 158 155 153 154 153 150
229 234 220 212 211 213 209 211 227 238 235 211 207 219 230 234 240 249 255 268 284 268 262 244 204 95 131 160 125 111 97 81 60 49 54 44 39 48 44 31 63 91 300 281 278 271 265 265 252 228 211 200 195 192 188 186 186 186 190 193 191 176 161 167 173 171 167 161 157 158 163 168 173 172 165 162 162 165 161 152 147 146 145 145 143 142
217 246 243 222 212 215 215 210 220 233 239 236 224 223 222 229 239 245 245 241 238 244 245 239 231 161 159 174 115 106 84 90 82 54 49 44 33 34 35 19 13 25 2 319 312 324 335 345 350 344 329 304 251 211 192 184 188 193 194 189 182 156 144 154 165 169 167 158 151 156 166 170 169 163 158 158 161 155 145 139 139 139 137 137 139 142
210 239 240 232 222 210 211 216 218 225 233 239 242 237 232 228 228 225 227 236 238 244 249 243 243 193 69 210 142 136 112 96 72 39 21 36 41 28 21 20 13 15 14 359 353 4 9 5 11 14 5 357 353 350 32 66 331 339 30 79 99 105 149 181 161 157 165 159 151 155 171 173 162 155 155 155 150 141 135 134 134 136 136 139 145 148
203 243 246 234 221 205 207 216 218 213 218 233 241 235 241 245 232 221 216 230 243 243 246 248 241 103 42 350 0 54 92 90 78 56 8 34 50 38 33 42 31 22 24 28 29 31 27 11 17 28 19 15 27 37 42 42 37 29 36 75 120 110 132 180 179 161 150 149 148 152 168 166 154 148 153 152 145 139 137 138 139 144 147 148 151 154
181 190 254 246 215 206 214 209 221 227 207 212 229 229 231 231 234 245 227 221 248 253 250 255 242 101 39 335 18 68 89 98 101 119 108 62 62 52 48 58 54 40 30 31 34 34 27 19 28 35 26 27 37 36 24 31 50 47 38 93 136 116 119 149 172 176 166 140 137 138 152 155 148 148 154 151 148 147 147 147 147 149 151 152 155 158
186 173 215 252 224 213 227 210 215 235 228 210 214 221 228 227 222 234 231 217 239 253 260 265 285 80 336 338 30 79 87 91 95 103 95 74 68 61 58 60 59 53 36 25 26 32 33 29 33 35 34 43 46 31 20 35 55 46 35 68 91 103 121 127 141 167 156 130 137 142 142 150 148 148 156 157 156 157 154 151 151 152 152 153 155 160
199 197 208 239 240 234 241 223 213 232 240 233 222 217 226 232 230 235 234 206 218 252 269 215 109 157 220 46 50 66 73 70 71 86 83 70 64 60 60 60 54 53 53 44 38 43 47 43 43 41 37 50 59 48 40 48 55 49 45 60 69 82 112 124 134 145 125 118 139 145 143 152 153 151 161 168 166 163 153 147 148 150 151 149 153 160
188 220 225 234 246 248 250 249 245 246 242 236 227 221 228 230 231 244 237 160 178 248 282 262 126 154 156 100 83 81 77 69 60 67 68 65 61 55 56 55 43 35 44 51 51 52 50 45 45 43 31 37 56 59 53 48 46 48 50 56 64 74 91 109 125 136 134 137 146 148 149 156 158 158 168 175 171 161 149 147 148 149 150 149 152 156
218 204 214 232 234 229 236 244 262 257 247 245 236 228 240 237 228 239 188 147 185 191 168 213 283 147 120 99 103 101 87 75 65 63 62 62 59 51 51 50 36 30 35 42 49 53 51 45 40 37 28 29 45 53 51 46 39 38 40 45 54 69 88 104 119 135 148 155 156 156 156 157 158 161 171 176 168 158 152 153 153 150 151 152 152 152
254 217 208 235 231 219 232 237 256 262 256 297 280 243 248 250 230 112 83 178 209 210 199 206 163 132 113 109 131 120 101 88 75 71 63 61 62 54 50 50 44 41 38 41 47 51 52 47 37 35 33 30 36 43 46 46 41 35 36 40 47 66 89 105 120 137 151 157 159 160 158 154 156 159 167 170 162 158 159 158 155 152 151 152 152 152
254 248 249 265 265 274 301 309 323 323 312 308 307 304 299 285 256 161 163 231 115 44 309 281 127 125 124 143 148 125 110 104 85 74 66 64 67 61 56 56 56 54 49 48 48 49 54 53 41 36 35 32 32 35 39 40 39 36 35 36 42 62 81 98 127 144 156 157 155 157 155 154 156 159 164 167 160 159 159 156 154 153 150 150 151 153
1 271 315 325 300 315 355 318 300 305 308 323 326 333 347 342 318 265 85 42 65 80 5 305 136 133 151 163 139 107 96 93 80 71 70 72 73 72 71 67 64 62 59 56 53 50 52 51 43 33 30 31 31 33 36 37 38 37 35 33 35 49 74 127 151 150 156 156 154 154 152 151 155 155 156 159 159 158 155 153 154 153 151 150 146 147
247 294 3 357 325 329 351 313 284 292 315 347 354 355 3 5 1 8 43 47 58 92 162 221 155 126 134 131 104 93 89 84 78 69 69 71 67 67 69 65 61 59 57 56 54 54 53 51 48 38 31 31 32 33 34 35 37 38 36 34 35 45 68 138 174 161 154 150 147 146 143 143 147 146 146 150 155 158 157 156 156 151 149 146 142 145
294 298 356 3 337 313 324 327 303 296 305 7 17 19 14 5 10 29 49 61 68 66 94 134 96 79 79 83 87 93 90 84 78 66 61 62 59 56 57 56 55 52 52 51 49 50 53 51 50 46 40 36 34 34 34 33 37 40 36 35 39 46 65 90 115 140 134 128 129 134 135 134 133 132 135 139 144 148 152 155 155 151 150 145 140 144
246 239 246 303 302 286 291 329 293 288 290 64 38 30 28 11 354 9 50 70 75 69 104 121 98 71 70 84 91 94 89 83 74 62 54 51 49 50 50 49 49 48 49 48 45 46 47 45 45 45 42 37 33 34 35 33 36 39 38 40 42 46 62 74 66 75 99 108 114 124 130 130 125 123 124 127 130 132 136 140 138 137 139 136 136 142
236 219 223 257 266 271 249 183 258 301 294 139 68 37 34 36 351 341 50 69 92 148 154 145 123 119 125 106 94 88 80 75 69 62 57 49 42 43 46 44 44 47 48 47 44 41 40 40 39 38 40 40 35 32 34 37 41 41 41 44 44 46 56 63 63 70 87 102 108 113 121 128 128 126 125 128 133 131 129 127 119 115 120 122 124 130
242 234 237 256 263 272 281 157 154 330 280 214 79 28 12 41 55 38 49 49 54 135 167 152 106 121 131 116 96 82 72 67 63 56 55 54 44 39 40 38 40 46 49 49 46 42 41 41 35 31 35 41 38 33 36 45 48 44 43 46 49 52 55 55 56 59 68 85 99 108 118 125 127 129 131 134 134 130 129 127 119 112 112 113 113 115
210 245 254 248 258 283 36 38 247 191 217 248 6 0 353 26 68 79 56 35 46 86 98 87 97 108 111 103 94 87 77 69 63 53 49 51 49 45 41 37 38 44 48 49 47 39 35 38 36 30 30 35 37 38 45 55 56 52 53 55 55 55 54 53 53 54 57 68 82 97 117 125 124 125 133 138 133 129 129 128 121 114 111 110 110 110
175 209 220 183 242 296 72 59 283 207 195 222 69 18 351 8 70 83 63 34 42 88 97 91 92 89 87 91 93 92 86 78 68 58 49 45 47 50 49 42 38 43 47 49 45 36 30 33 37 33 30 31 34 35 42 53 61 62 62 61 57 54 53 53 54 53 52 58 66 75 95 120 126 124 129 137 138 136 129 122 118 114 112 112 113 111
194 200 210 210 225 213 167 154 154 157 141 89 61 27 357 353 51 74 76 47 34 69 94 97 100 98 97 102 100 98 96 87 72 59 50 46 45 46 48 45 38 39 43 40 36 33 29 29 36 39 39 38 38 36 35 40 52 62 63 62 59 56 54 54 53 51 50 52 58 64 72 91 111 120 126 130 133 138 134 126 124 119 112 108 109 110
207 200 202 205 214 230 212 108 105 144 129 63 44 27 14 17 17 18 81 67 37 56 99 111 115 114 114 113 114 121 116 91 69 56 49 46 46 45 45 44 39 37 39 35 33 34 35 35 39 44 46 46 46 43 38 37 44 50 53 57 59 57 55 53 51 49 51 52 55 59 63 69 80 92 105 113 117 124 135 143 140 128 116 113 120 122
214 192 201 205 203 249 220 132 136 168 140 53 27 16 17 39 332 317 338 85 40 47 96 115 119 124 129 130 137 158 140 76 57 49 44 43 46 48 46 44 42 42 43 40 37 36 36 39 42 44 47 48 49 48 45 43 46 47 46 47 49 50 50 50 50 49 49 50 53 57 59 62 68 75 80 85 93 103 120 139 144 138 135 136 138 128
182 144 166 190 160 107 164 188 139 138 114 34 4 352 353 3 317 288 229 103 25 29 87 115 123 125 129 135 145 179 165 87 78 54 41 44 46 45 43 39 36 41 45 44 42 38 35 37 41 43 42 41 44 46 45 45 48 50 49 46 43 44 44 43 44 46 48 50 52 55 57 59 65 72 73 75 79 84 93 107 123 141 150 143 131 119
159 150 161 158 141 118 94 71 65 88 79 11 348 334 338 351 329 278 208 107 18 36 88 108 116 106 89 89 83 45 41 99 109 81 58 61 57 52 50 42 36 40 40 36 36 36 35 37 39 38 35 33 37 42 43 45 47 49 50 47 44 43 41 39 40 44 49 52 52 54 56 58 63 69 72 75 79 80 81 84 91 106 112 111 116 114
173 191 202 171 132 115 116 111 90 95 50 354 335 324 329 329 303 276 77 74 60 68 75 76 82 79 67 68 75 60 53 77 88 80 69 67 62 54 49 44 43 47 45 39 38 36 34 34 36 36 34 33 35 39 40 42 44 44 45 46 45 43 40 39 42 46 50 53 52 53 56 58 61 65 67 72 76 77 76 78 84 92 94 96 104 107
152 277 246 187 125 114 120 112 101 109 39 349 328 323 337 326 220 65 35 84 88 78 75 73 74 81 80 81 87 91 85 76 73 69 61 57 56 47 36 31 33 38 38 37 38 40 39 37 36 36 34 33 35 37 39 41 41 38 38 40 41 42 42 41 43 47 52 54 53 53 56 58 61 62 64 68 71 71 71 72 78 88 93 94 96 99
355 339 100 70 47 97 119 106 117 135 25 353 335 333 10 19 44 0 16 98 91 83 84 81 78 89 95 93 92 94 92 84 75 70 61 55 56 50 37 29 29 31 31 29 28 32 37 37 38 39 37 35 37 38 40 43 41 36 35 33 32 37 44 46 46 49 53 56 56 54 55 57 57 57 59 62 64 65 65 64 67 77 85 91 96 103
351 337 91 56 354 0 108 93 72 72 20 4 6 34 29 6 326 296 133 105 93 89 94 90 89 96 100 102 101 93 87 82 77 73 66 57 54 51 42 33 28 26 26 26 29 34 37 33 32 37 40 41 42 41 41 43 42 38 36 32 29 37 45 48 50 52 53 56 60 61 60 58 56 56 58 59 60 60 59 59 61 64 67 74 82 93
40 52 80 72 50 56 75 87 84 70 44 28 39 44 18 353 344 7 87 99 93 92 97 98 100 100 100 104 103 96 92 90 85 81 77 69 61 56 49 41 34 27 23 21 25 35 44 40 30 30 36 40 42 44 44 43 43 42 40 34 35 42 47 49 54 58 57 55 58 63 65 63 61 63 62 59 59 58 56 57 59 58 60 62 60 60
88 91 90 93 100 88 70 71 81 74 62 55 51 40 25 14 16 48 79 88 91 97 101 103 104 104 103 104 103 101 101 103 101 99 94 86 82 75 61 50 42 35 29 24 23 32 45 46 34 29 33 35 36 41 43 42 43 44 44 41 40 43 48 53 58 61 63 62 61 64 69 68 66 66 65 63 62 57 51 54 62 65 67 68 63 58
76 80 81 90 119 114 65 60 69 71 67 62 52 41 39 37 38 59 85 94 97 100 102 104 105 106 106 105 105 108 113 115 114 112 106 97 94 91 82 69 54 42 34 30 31 37 42 41 35 32 33 31 31 35 37 38 40 42 45 48 47 48 52 58 62 64 64 66 68 69 71 70 68 66 68 71 71 65 55 52 63 70 70 68 67 62
86 86 80 75 79 87 89 87 82 75 70 66 59 47 42 45 50 63 85 100 104 107 110 114 113 112 112 111 111 114 118 121 120 115 112 108 105 104 104 97 78 60 48 42 43 47 45 40 36 35 36 33 30 31 32 34 34 36 42 49 53 57 60 61 66 71 71 71 73 75 76 75 73 74 77 78 76 72 64 58 62 68 67 64 65 64
95 95 91 92 94 99 109 112 103 85 73 71 75 72 65 63 64 65 71 81 87 92 100 107 109 109 112 120 127 130 131 136 140 138 135 130 125 129 136 127 104 90 82 70 64 60 53 46 38 34 35 37 35 34 34 33 31 31 36 45 52 59 68 71 69 69 71 73 77 81 85 88 87 86 85 82 77 73 71 68 67 69 68 64 61 63
93 101 108 109 101 92 91 100 107 99 86 86 93 91 87 84 80 75 71 72 75 76 76 79 78 72 68 71 83 100 115 129 134 126 110 93 88 98 110 105 90 89 94 86 72 61 61 63 55 41 34 31 30 34 35 32 32 32 32 36 41 44 57 74 76 71 67 65 66 71 78 86 94 97 95 90 84 80 78 77 73 70 70 67 63 61
82 94 102 100 92 92 95 95 98 102 102 106 108 102 95 91 87 85 83 81 82 83 83 81 77 69 58 51 50 53 56 59 66 72 68 60 61 65 65 57 50 50 57 62 53 39 43 57 61 56 50 37 28 31 34 32 31 32 32 35 40 41 44 58 69 74 73 64 59 64 71 71 73 84 99 105 99 92 89 87 82 75 70 69 67 62
Height
746 756 759 758 753 746 742 739 736 730 725 727 728 726 726 729 725 715 717 719 718 732 739 735 736 733 729 724 717 714 715 721 725 728 736 740 742 747 752 756 757 756 756 756 757 758 759 762 765 767 769 770 771 774 776 779 781 780 780 784 787 790 791 790 791 792 793 794 794 796 798 798 800 802 806 808 807 808 810 812 813 815 817 818 820 821
745 757 755 746 742 737 735 734 732 731 729 732 734 732 726 726 724 715 716 716 716 734 741 735 737 735 730 726 719 715 716 719 723 728 734 736 738 742 747 751 752 754 756 757 759 760 760 761 764 769 774 776 773 774 777 778 779 780 781 784 787 789 791 790 791 791 791 793 793 795 796 798 801 803 805 807 808 808 810 812 813 814 816 818 820 821
751 755 747 737 734 732 732 730 731 733 733 737 738 738 737 731 727 722 716 712 714 731 741 737 740 737 728 725 722 718 717 715 715 720 726 729 733 737 742 746 748 752 755 758 759 760 761 759 759 764 774 782 780 776 778 778 778 779 780 782 784 785 786 787 787 788 790 791 792 795 796 798 801 802 803 806 807 808 810 812 814 815 817 819 820 821
755 749 737 732 730 731 734 730 731 734 734 740 742 743 743 734 733 734 724 716 717 724 734 738 740 737 729 724 721 718 715 713 710 712 717 720 724 729 733 737 742 748 753 756 758 760 761 760 759 761 768 780 785 782 780 778 776 775 776 777 777 779 780 782 783 785 787 788 791 794 796 798 800 801 803 804 806 807 810 812 814 815 817 819 821 821
744 733 725 727 729 731 734 732 734 740 741 741 742 742 741 734 733 733 724 721 723 726 731 741 750 745 734 731 726 716 714 715 711 709 713 717 717 719 725 732 737 742 748 752 754 756 757 758 759 763 767 773 781 784 781 778 775 772 771 771 772 774 776 778 780 781 783 785 788 791 794 797 799 799 800 802 803 805 808 812 814 815 817 819 820 820
733 721 715 722 727 727 732 733 735 744 748 744 739 737 736 733 731 729 726 726 733 739 733 739 764 759 735 731 730 720 717 718 713 710 713 716 715 714 719 727 732 738 744 748 749 750 752 753 759 766 769 770 773 780 782 780 778 775 773 772 771 772 773 775 778 779 780 782 784 788 791 795 797 797 798 799 801 803 806 810 813 815 818 819 819 819
726 718 713 720 724 725 731 735 734 739 749 749 735 728 732 733 734 733 731 733 740 745 732 728 754 759 737 728 724 718 718 717 713 712 714 716 716 714 715 722 729 734 741 746 747 748 749 752 759 767 771 769 767 773 781 781 779 776 773 772 771 772 773 775 777 778 779 781 783 787 790 793 795 796 796 798 800 802 804 807 810 813 816 817 817 819
721 722 719 722 726 729 736 739 733 732 745 747 729 722 727 728 731 732 733 740 741 742 736 727 737 751 746 731 718 713 715 715 713 712 711 714 717 715 715 721 727 730 736 742 745 746 749 753 759 765 769 767 763 769 778 780 778 774 770 768 770 772 773 773 775 776 778 780 782 786 789 792 794 796 797 798 799 801 803 806 809 811 813 815 816 818
716 724 722 724 731 734 735 734 727 728 739 737 723 721 723 720 723 726 732 741 738 744 752 737 732 750 752 732 719 716 716 716 716 712 709 713 717 715 715 721 725 728 733 737 742 745 749 753 758 764 767 766 763 767 776 778 776 772 768 766 770 772 773 772 773 775 777 780 782 784 787 790 794 796 797 798 799 801 803 805 808 809 811 813 815 817
713 718 715 721 733 733 730 726 722 725 732 727 720 722 724 725 727 730 737 739 739 751 758 743 734 748 751 731 722 726 726 724 720 714 711 712 715 716 718 724 726 731 735 737 740 744 748 753 758 764 766 765 762 762 772 779 775 771 767 766 768 771 771 771 772 774 776 779 782 784 785 788 792 795 796 797 798 800 802 804 806 808 810 813 815 818
709 710 711 717 724 724 723 720 718 719 722 721 723 725 729 733 734 739 739 738 751 761 751 737 731 743 752 735 723 729 731 728 723 721 720 718 719 721 725 730 731 734 737 737 739 744 749 754 758 764 765 763 761 761 770 780 776 770 767 766 767 769 770 770 771 773 775 777 780 782 784 787 790 792 794 795 796 798 800 802 804 806 808 813 816 818
714 714 715 713 712 715 720 720 716 715 717 723 728 733 741 745 743 748 745 746 766 769 746 731 724 734 751 739 726 729 726 724 727 728 730 729 729 730 733 736 736 736 737 737 740 744 748 753 757 762 763 761 760 762 769 777 775 769 766 765 766 767 767 768 769 771 772 774 777 780 783 786 788 790 792 794 795 797 799 802 804 806 810 814 817 817
722 717 714 713 712 715 724 727 723 720 721 728 732 740 756 762 759 763 761 757 765 758 738 727 724 734 745 737 731 734 728 725 728 729 730 731 732 734 739 742 739 738 739 739 741 744 746 750 754 758 760 759 759 761 766 771 770 767 765 763 763 764 764 764 766 768 770 772 775 778 781 784 786 789 791 793 795 797 799 802 805 808 811 814 816 817
730 722 713 714 717 717 724 730 733 729 726 731 735 743 759 767 772 775 767 762 761 749 732 723 727 739 746 743 738 736 733 730 728 728 729 731 733 735 739 742 741 741 743 742 742 743 743 745 749 753 755 755 756 758 762 765 765 763 762 761 761 760 760 762 764 767 770 772 774 777 780 783 785 787 790 792 794 797 800 803 805 808 810 812 814 816
736 737 719 712 714 717 721 723 724 721 721 727 726 732 746 752 762 767 762 763 761 750 739 733 736 743 751 753 742 734 734 731 730 732 732 734 737 736 736 740 743 745 745 745 745 743 742 740 742 747 750 751 753 755 757 758 759 758 758 758 758 757 759 761 764 767 770 773 775 778 780 782 785 787 790 792 795 798 801 803 805 807 809 812 814 815
729 732 713 705 706 711 719 717 712 715 722 721 718 730 739 734 738 747 748 750 753 756 752 744 743 744 747 748 739 734 737 735 735 737 736 739 740 739 741 742 744 747 745 745 745 743 742 740 739 742 744 747 749 750 751 752 752 754 755 756 756 758 760 763 766 769 772 775 778 780 781 783 786 788 791 794 796 799 801 804 805 807 809 812 813 815
731 728 707 704 708 705 711 713 709 716 722 718 720 731 728 717 722 739 746 742 749 767 760 742 745 750 748 748 740 738 742 741 742 743 742 744 743 742 746 747 749 753 751 748 745 744 743 741 741 742 742 744 745 746 748 748 750 751 753 756 758 761 764 767 770 773 775 778 780 782 784 785 788 790 793 795 798 800 802 804 806 808 810 812 813 815
726 732 713 705 712 705 702 707 708 708 711 718 725 722 715 715 718 729 748 753 757 768 757 739 746 756 758 757 749 745 749 749 748 749 748 748 749 751 754 755 757 760 761 759 755 755 754 753 754 753 753 754 753 752 752 753 755 756 758 759 761 765 769 772 775 777 779 780 781 784 786 788 790 793 795 797 799 801 802 804 806 808 810 812 813 815
717 734 722 703 708 706 698 707 716 709 704 711 717 710 714 732 735 732 747 759 763 767 760 744 743 756 764 760 753 752 755 755 755 757 757 756 757 760 761 760 760 761 764 764 763 764 763 763 763 761 762 763 761 760 759 760 763 764 764 765 766 770 772 774 776 780 782 783 783 786 787 789 792 794 797 798 800 801 802 804 806 808 810 812 814 816
713 734 733 706 700 705 704 711 721 719 710 708 711 710 713 725 732 732 736 745 753 762 763 752 750 767 773 762 757 757 754 757 763 767 767 764 763 766 766 765 765 766 766 765 764 764 763 763 763 761 761 761 762 765 765 767 769 769 768 768 769 772 772 772 774 780 784 785 786 788 790 792 793 796 798 799 800 801 802 804 806 809 811 813 815 816
712 733 741 717 700 709 715 713 717 718 714 717 722 722 721 719 721 727 729 731 740 753 760 757 762 777 774 762 761 760 757 759 764 768 769 767 767 770 771 770 770 770 769 767 765 763 762 764 763 762 759 758 762 769 770 770 770 770 771 772 772 774 775 775 775 779 783 785 788 791 793 794 795 796 799 800 801 803 804 805 807 809 811 813 814 816
712 727 739 729 715 717 715 705 705 708 705 711 719 721 722 720 723 737 743 735 733 743 751 759 776 786 774 764 764 763 763 764 764 767 769 768 770 772 773 774 773 772 772 771 769 766 764 765 764 764 761 760 766 771 773 771 769 769 773 775 776 777 779 781 781 781 782 783 787 792 795 797 797 798 801 802 803 804 805 806 808 809 811 812 814 815
706 718 732 734 722 714 707 697 698 701 698 701 707 710 713 714 720 738 750 745 739 740 742 751 774 787 774 764 768 768 768 768 768 769 770 770 771 772 773 775 775 773 773 773 772 769 767 766 765 766 766 766 769 771 773 773 770 770 773 775 777 778 780 783 784 786 786 784 785 790 794 796 797 799 801 803 804 805 806 807 808 810 811 812 814 815
707 720 732 735 724 712 704 697 697 698 698 702 704 703 708 711 713 720 729 738 745 747 749 757 771 780 771 761 764 768 770 772 773 771 771 773 773 773 775 777 776 774 773 773 773 771 769 768 766 767 769 769 769 770 773 774 772 772 774 776 778 779 781 783 784 786 788 787 785 787 790 794 795 798 801 804 805 805 806 808 809 810 811 812 813 815
719 726 733 740 741 733 723 719 718 711 705 707 706 705 708 706 707 715 719 730 744 747 751 765 776 777 767 760 763 768 772 776 777 774 773 775 776 777 777 778 778 776 775 775 775 774 773 771 770 770 772 772 770 771 774 775 775 775 775 776 778 779 781 782 783 785 786 786 785 786 789 793 796 798 801 804 805 806 807 808 808 809 810 811 813 814
725 727 732 743 751 751 748 744 737 727 720 719 714 712 714 705 708 727 735 739 749 747 742 756 773 776 768 764 768 770 774 779 780 777 778 779 780 781 781 780 781 780 780 779 778 779 779 777 775 775 775 776 775 775 775 777 777 777 777 777 778 780 781 782 783 785 785 786 787 788 790 793 796 798 801 803 804 805 807 807 808 809 810 811 812 814
728 729 731 738 744 750 754 749 740 733 732 734 729 723 723 715 713 729 742 747 752 757 757 755 761 773 775 770 770 773 776 781 783 783 784 784 785 785 785 784 784 784 785 784 784 784 783 781 780 778 779 781 780 779 778 778 779 779 780 779 779 780 781 782 784 785 785 786 788 790 791 793 796 798 799 801 803 804 806 807 808 809 810 811 812 813
737 739 736 738 741 744 748 750 750 746 739 738 740 736 734 729 723 728 743 749 749 761 778 773 762 768 774 769 770 776 780 784 787 788 788 788 787 788 788 788 788 789 789 789 789 788 785 784 784 783 783 783 782 781 781 781 783 783 782 781 781 781 782 782 783 784 785 786 788 790 791 793 796 797 798 800 802 803 804 806 807 809 810 811 812 813
740 744 742 743 745 743 744 747 749 745 740 742 747 747 746 744 740 742 751 754 752 761 775 775 768 768 772 773 776 780 784 788 790 790 789 789 790 790 790 790 791 792 792 792 792 791 789 789 789 789 788 787 786 785 785 786 787 786 785 784 783 783 783 783 784 785 785 785 787 789 790 792 795 796 798 800 801 803 804 805 807 808 810 811 812 814
741 748 746 745 749 747 746 750 752 748 746 748 749 751 755 757 755 754 758 759 759 764 766 767 772 776 780 784 784 783 785 788 790 791 791 791 793 793 793 794 794 794 794 795 794 793 793 794 794 794 794 793 792 791 790 790 790 789 788 787 786 786 786 785 786 785 785 786 787 789 790 792 794 796 797 799 800 802 803 805 807 808 810 812 813 814
744 752 748 745 750 751 747 753 760 758 755 756 756 756 759 766 767 761 759 762 766 769 770 773 782 788 788 787 786 786 788 790 793 796 796 797 796 796 797 797 797 797 797 798 797 797 797 797 798 798 797 797 796 795 794 794 792 792 791 790 790 789 788 788 787 786 787 788 789 790 791 793 795 797 799 799 800 801 803 805 806 808 810 812 813 815
743 748 747 746 753 753 748 752 759 763 763 763 766 767 765 772 778 769 762 765 770 772 775 776 782 789 791 789 789 791 793 796 800 802 802 803 802 801 801 801 801 802 802 802 801 801 801 801 801 801 800 800 799 798 797 797 796 795 795 794 793 792 791 790 789 789 790 791 792 792 793 794 796 798 800 801 801 802 803 805 806 807 809 811 814 815
740 744 745 747 755 754 748 750 758 768 775 775 777 779 773 772 778 775 769 768 769 772 776 776 778 785 790 791 795 800 802 804 807 806 807 808 808 808 808 807 807 807 806 806 806 805 806 805 805 805 804 803 802 802 801 800 799 799 798 798 797 795 794 793 792 792 792 793 794 795 795 796 797 798 801 803 804 803 804 805 807 809 810 812 815 816
741 743 744 748 755 755 753 758 763 769 780 787 788 784 777 773 776 780 780 777 772 773 777 777 780 787 791 795 802 807 809 811 812 812 811 811 812 813 813 813 813 812 811 810 810 810 810 809 809 809 807 806 806 804 804 803 803 802 801 801 800 798 797 797 796 796 795 795 796 797 798 798 798 800 803 806 807 806 806 807 808 811 813 814 817 818
744 746 747 749 752 755 760 767 772 777 785 790 788 783 779 777 776 779 784 783 779 778 781 785 792 797 799 803 807 810 812 814 814 815 815 815 816 816 817 819 818 816 816 815 814 814 813 812 812 811 810 809 808 807 806 806 806 805 804 803 803 802 802 801 800 800 799 798 798 799 800 801 801 803 805 807 809 810 810 810 810 813 815 817 819 821
744 746 749 750 752 756 761 765 774 787 791 787 784 784 784 781 780 783 789 790 787 785 788 795 801 804 806 809 810 812 814 814 815 818 820 820 820 820 821 822 822 820 820 819 818 818 817 815 815 814 813 812 811 810 809 809 809 808 807 807 806 805 805 804 804 804 803 802 801 802 803 804 804 806 807 809 810 811 812 813 814 816 818 819 821 823
738 743 748 751 752 753 757 767 782 790 790 791 792 792 791 791 790 790 792 795 793 789 792 798 803 806 809 810 811 811 810 811 816 822 824 824 824 824 824 825 825 824 823 822 822 821 820 819 817 816 815 815 813 813 813 812 812 811 810 810 809 809 808 808 807 808 807 806 806 806 806 807 807 807 809 810 811 812 813 815 817 818 819 821 823 824
735 740 746 751 756 755 758 771 782 783 788 799 800 795 792 793 793 791 792 798 798 792 793 799 803 808 810 809 811 809 807 812 823 828 828 828 828 827 827 828 828 827 826 825 824 823 822 821 820 818 817 817 816 816 816 815 815 813 812 812 812 812 811 811 811 812 810 810 810 810 810 810 810 810 811 811 812 814 815 817 818 819 820 822 824 825
740 741 744 751 758 762 763 769 775 781 794 806 804 796 792 790 791 790 792 800 804 798 796 800 804 808 809 809 811 809 808 817 830 834 832 831 831 830 831 831 830 829 828 827 826 826 825 824 823 821 819 818 818 819 819 818 817 815 814 814 814 814 814 814 815 815 814 814 813 813 813 813 813 813 813 813 814 815 817 818 819 820 821 823 824 825
752 749 749 753 760 766 769 774 782 793 805 809 805 798 793 791 792 790 791 802 808 802 800 804 806 809 811 812 814 816 816 822 832 835 834 834 834 834 833 833 832 831 830 829 828 828 828 826 825 823 822 822 822 821 821 821 819 818 817 817 817 817 817 818 818 818 818 817 816 816 816 816 816 816 816 816 816 817 819 820 820 821 822 824 825 826
762 756 752 753 760 768 773 779 790 803 809 809 805 799 794 793 793 794 798 807 809 805 806 809 810 813 816 817 820 825 828 829 832 835 835 835 836 836 836 836 835 833 832 832 831 830 830 829 828 827 827 826 825 824 824 823 822 821 821 821 820 820 820 821 820 820 820 820 819 819 819 818 819 819 819 820 820 820 821 822 822 822 824 825 826 827
767 765 759 757 761 767 773 781 792 805 813 811 805 798 794 793 796 803 808 809 808 810 813 814 816 818 821 824 827 831 834 835 836 837 837 838 838 840 840 839 837 836 835 834 833 833 833 833 832 831 830 829 828 827 827 826 825 825 825 824 824 824 824 823 823 823 822 822 822 822 822 822 821 822 822 823 824 823 823 824 824 825 825 827 828 829
776 772 769 774 774 767 770 782 792 803 814 813 805 802 802 803 807 811 811 809 811 815 817 819 822 824 826 829 833 834 836 838 839 840 840 841 841 842 843 842 840 839 838 836 835 835 835 836 835 834 834 833 831 830 830 829 829 829 828 827 827 827 827 826 826 825 825 825 825 825 825 825 824 824 825 825 826 826 825 825 826 827 827 828 829 830
782 773 772 787 790 778 780 796 806 813 820 817 812 812 814 815 814 811 809 811 815 819 820 823 827 828 829 832 835 837 839 840 841 843 843 843 843 844 844 844 842 842 841 839 838 837 838 839 838 837 837 836 834 834 833 832 833 832 832 831 831 830 829 828 828 828 828 828 828 828 828 828 828 828 828 828 828 828 827 828 828 828 829 829 830 831
790 786 784 795 803 799 802 813 819 821 823 820 818 820 819 816 813 808 809 814 818 821 823 826 829 831 832 834 836 839 841 842 843 845 845 846 846 845 845 845 844 844 843 842 840 840 840 842 842 841 839 838 837 837 836 836 836 835 834 834 833 832 831 830 830 830 830 830 830 830 831 831 831 831 830 830 831 831 831 831 830 830 830 830 831 832
788 787 788 797 806 808 814 820 821 822 824 822 822 821 819 817 815 812 813 817 820 823 826 828 830 833 835 836 837 840 842 843 844 846 846 847 847 846 846 846 845 846 845 844 842 842 842 843 844 843 842 841 840 839 839 839 838 838 837 837 835 834 834 833 832 832 832 833 833 833 833 833 833 833 833 833 833 834 834 834 833 832 832 832 833 834
786 785 789 798 803 807 817 825 824 824 826 825 823 822 821 819 819 817 818 821 823 825 827 829 832 834 835 837 838 839 841 843 843 845 845 846 846 846 846 847 846 847 847 845 844 844 844 845 846 845 843 843 842 842 841 841 840 839 839 838 837 837 836 836 835 835 835 835 835 835 835 835 835 835 835 835 835 836 837 837 836 835 835 835 835 836
789 790 795 803 808 813 823 829 826 826 827 826 826 826 825 823 823 822 821 823 824 827 829 831 833 834 835 837 838 838 840 841 842 843 844 844 845 846 846 847 847 847 847 846 846 846 846 846 846 846 845 845 844 844 843 842 842 841 841 840 839 839 839 838 837 837 837 837 837 837 837 837 837 837 837 838 838 838 839 839 839 839 838 839 839 839
788 793 800 808 814 821 826 827 825 827 830 830 829 829 828 827 826 825 825 826 827 829 831 832 833 834 835 836 837 837 839 840 840 841 842 842 843 844 845 846 847 847 847 848 848 848 848 848 848 847 846 846 845 845 844 844 844 843 842 841 841 840 840 840 839 838 838 838 838 839 839 839 839 839 839 840 840 840 841 842 842 842 842 842 842 842
790 798 803 807 813 820 822 822 822 827 832 834 832 831 830 829 829 829 830 830 831 832 833 834 835 835 835 836 836 836 837 838 839 839 840 840 841 842 844 845 845 846 847 848 848 848 848 848 848 848 847 847 846 846 845 845 845 844 843 843 842 841 841 840 840 840 840 840 840 840 840 840 841 841 841 842 842 842 843 844 845 845 845 845 845 845
793 798 800 803 811 818 820 820 822 826 831 833 832 831 831 831 831 832 833 833 834 835 835 836 837 838 838 839 839 838 838 839 839 840 841 842 843 844 845 846 846 847 847 848 848 848 848 848 848 848 848 847 847 846 846 846 846 845 844 843 843 842 841 841 841 841 841 841 841 841 842 842 842 843 843 843 844 844 845 846 846 847 847 847 847 847